TimeEDT,TemperatureF,Dew PointF,Humidity,Sea Level PressureIn,VisibilityMPH,Wind Direction,Wind SpeedMPH,Gust SpeedMPH,PrecipitationIn,Events,Conditions,WindDirDegrees,DateUTC
12:15 AM,55.4,50.0,82,29.90,10.0,WSW,3.5,-,N/A,,Unknown,240,2011-10-27 04:15:00
12:35 AM,57.2,48.2,72,29.89,10.0,SW,3.5,-,N/A,,Unknown,230,2011-10-27 04:35:00
12:55 AM,57.2,48.2,72,29.89,10.0,WSW,3.5,-,N/A,,Unknown,240,2011-10-27 04:55:00
1:15 AM,57.2,48.2,72,29.88,10.0,SW,4.6,-,N/A,,Unknown,220,2011-10-27 05:15:00
1:35 AM,55.4,48.2,77,29.88,10.0,SW,4.6,-,N/A,,Unknown,230,2011-10-27 05:35:00
1:55 AM,57.2,48.2,72,29.88,10.0,WSW,3.5,-,N/A,,Unknown,240,2011-10-27 05:55:00
2:15 AM,57.2,48.2,72,29.88,10.0,Calm,Calm,-,N/A,,Unknown,0,2011-10-27 06:15:00
2:35 AM,53.6,48.2,82,29.88,10.0,Calm,Calm,-,N/A,,Unknown,0,2011-10-27 06:35:00
2:55 AM,53.6,48.2,82,29.88,10.0,Calm,Calm,-,N/A,,Unknown,0,2011-10-27 06:55:00
3:15 AM,51.8,48.2,88,29.87,10.0,Calm,Calm,-,N/A,,Unknown,0,2011-10-27 07:15:00
3:35 AM,53.6,48.2,82,29.86,10.0,Calm,Calm,-,N/A,,Unknown,0,2011-10-27 07:35:00
3:55 AM,55.4,48.2,77,29.86,10.0,Calm,Calm,-,N/A,,Unknown,0,2011-10-27 07:55:00
4:15 AM,53.6,46.4,77,29.85,10.0,Calm,Calm,-,N/A,,Unknown,0,2011-10-27 08:15:00
4:35 AM,55.4,48.2,77,29.85,10.0,SW,3.5,-,N/A,,Unknown,230,2011-10-27 08:35:00
4:55 AM,53.6,46.4,77,29.85,10.0,SW,3.5,-,N/A,,Unknown,220,2011-10-27 08:55:00
5:15 AM,53.6,46.4,77,29.85,10.0,SW,3.5,-,N/A,,Unknown,220,2011-10-27 09:15:00
5:35 AM,53.6,48.2,82,29.85,10.0,SW,6.9,-,N/A,,Unknown,230,2011-10-27 09:35:00
5:55 AM,55.4,48.2,77,29.84,10.0,SW,6.9,-,N/A,,Unknown,230,2011-10-27 09:55:00
6:15 AM,55.4,48.2,77,29.84,10.0,SW,5.8,-,N/A,,Unknown,230,2011-10-27 10:15:00
6:35 AM,55.4,48.2,77,29.84,10.0,SW,5.8,-,N/A,,Unknown,230,2011-10-27 10:35:00
6:55 AM,55.4,46.4,72,29.84,10.0,SW,3.5,-,N/A,,Unknown,220,2011-10-27 10:55:00
7:15 AM,55.4,46.4,72,29.84,10.0,SSW,3.5,-,N/A,,Unknown,210,2011-10-27 11:15:00
7:35 AM,53.6,46.4,77,29.84,10.0,SSW,3.5,-,N/A,,Unknown,210,2011-10-27 11:35:00
7:55 AM,55.4,48.2,77,29.84,10.0,SW,5.8,-,N/A,,Unknown,230,2011-10-27 11:55:00
8:15 AM,57.2,48.2,72,29.84,10.0,SW,6.9,-,N/A,,Unknown,230,2011-10-27 12:15:00
8:35 AM,59.0,48.2,67,29.83,10.0,SW,8.1,-,N/A,,Unknown,220,2011-10-27 12:35:00
8:55 AM,60.8,48.2,63,29.84,10.0,SW,8.1,-,N/A,,Unknown,230,2011-10-27 12:55:00
9:15 AM,62.6,48.2,59,29.84,10.0,SW,8.1,-,N/A,,Unknown,230,2011-10-27 13:15:00
9:35 AM,64.4,48.2,56,29.84,10.0,WSW,6.9,-,N/A,,Unknown,240,2011-10-27 13:35:00
9:55 AM,64.4,48.2,56,29.84,10.0,West,5.8,9.2,N/A,,Unknown,260,2011-10-27 13:55:00
10:15 AM,66.2,46.4,49,29.84,10.0,WSW,9.2,-,N/A,,Unknown,240,2011-10-27 14:15:00
10:35 AM,68.0,48.2,49,29.83,10.0,SW,6.9,-,N/A,,Unknown,220,2011-10-27 14:35:00
10:55 AM,69.8,46.4,43,29.83,10.0,SW,8.1,-,N/A,,Unknown,220,2011-10-27 14:55:00
11:15 AM,71.6,46.4,41,29.83,10.0,SW,8.1,-,N/A,,Unknown,230,2011-10-27 15:15:00
11:35 AM,71.6,46.4,41,29.83,10.0,SW,10.4,-,N/A,,Unknown,230,2011-10-27 15:35:00
11:55 AM,73.4,46.4,38,29.82,10.0,SW,11.5,-,N/A,,Unknown,230,2011-10-27 15:55:00
12:15 PM,73.4,46.4,38,29.82,10.0,WSW,11.5,17.3,N/A,,Unknown,240,2011-10-27 16:15:00
12:35 PM,73.4,44.6,36,29.81,10.0,SW,8.1,-,N/A,,Unknown,230,2011-10-27 16:35:00
12:55 PM,75.2,44.6,34,29.81,10.0,WSW,8.1,-,N/A,,Unknown,250,2011-10-27 16:55:00
1:15 PM,75.2,44.6,34,29.80,10.0,SW,12.7,18.4,N/A,,Unknown,230,2011-10-27 17:15:00
1:35 PM,75.2,46.4,36,29.79,10.0,WSW,9.2,16.1,N/A,,Unknown,240,2011-10-27 17:35:00
1:55 PM,77.0,44.6,32,29.77,10.0,SW,12.7,18.4,N/A,,Unknown,230,2011-10-27 17:55:00
2:15 PM,77.0,44.6,32,29.76,10.0,SW,10.4,19.6,N/A,,Unknown,220,2011-10-27 18:15:00
2:35 PM,78.8,46.4,32,29.75,10.0,SW,13.8,-,N/A,,Unknown,220,2011-10-27 18:35:00
2:55 PM,78.8,46.4,32,29.74,10.0,SW,10.4,21.9,N/A,,Unknown,230,2011-10-27 18:55:00
3:15 PM,78.8,46.4,32,29.74,10.0,SW,13.8,20.7,N/A,,Unknown,220,2011-10-27 19:15:00
3:35 PM,78.8,46.4,32,29.73,10.0,SW,12.7,17.3,N/A,,Unknown,230,2011-10-27 19:35:00
3:55 PM,78.8,48.2,34,29.74,10.0,SW,11.5,17.3,N/A,,Unknown,230,2011-10-27 19:55:00
4:15 PM,78.8,48.2,34,29.74,10.0,SW,15.0,-,N/A,,Unknown,220,2011-10-27 20:15:00
4:35 PM,78.8,46.4,32,29.74,10.0,SW,13.8,19.6,N/A,,Unknown,220,2011-10-27 20:35:00
4:55 PM,77.0,46.4,34,29.74,10.0,WSW,9.2,-,N/A,,Unknown,240,2011-10-27 20:55:00
5:15 PM,77.0,48.2,36,29.75,10.0,WSW,10.4,-,N/A,,Unknown,240,2011-10-27 21:15:00
5:35 PM,75.2,48.2,38,29.75,10.0,WSW,9.2,-,N/A,,Unknown,240,2011-10-27 21:35:00
5:55 PM,75.2,48.2,38,29.76,10.0,SW,8.1,-,N/A,,Unknown,230,2011-10-27 21:55:00
6:15 PM,73.4,51.8,47,29.76,10.0,SW,3.5,-,N/A,,Unknown,230,2011-10-27 22:15:00
6:35 PM,71.6,51.8,50,29.77,10.0,SW,4.6,-,N/A,,Unknown,230,2011-10-27 22:35:00
6:55 PM,69.8,51.8,53,29.78,10.0,SW,4.6,-,N/A,,Unknown,220,2011-10-27 22:55:00
7:15 PM,68.0,51.8,56,29.79,10.0,SW,4.6,-,N/A,,Unknown,220,2011-10-27 23:15:00
7:35 PM,69.8,53.6,56,29.79,10.0,SW,4.6,-,N/A,,Unknown,220,2011-10-27 23:35:00
7:55 PM,69.8,53.6,56,29.80,10.0,SW,5.8,-,N/A,,Unknown,230,2011-10-27 23:55:00
8:15 PM,69.8,53.6,56,29.80,10.0,SW,4.6,-,N/A,,Unknown,230,2011-10-28 00:15:00
8:35 PM,69.8,53.6,56,29.81,10.0,WSW,3.5,-,N/A,,Unknown,240,2011-10-28 00:35:00
8:55 PM,69.8,53.6,56,29.83,10.0,Calm,Calm,-,N/A,,Unknown,0,2011-10-28 00:55:00
9:15 PM,71.6,53.6,53,29.85,10.0,Calm,Calm,-,N/A,,Unknown,0,2011-10-28 01:15:00
9:35 PM,71.6,51.8,50,29.86,10.0,NW,3.5,-,N/A,,Unknown,320,2011-10-28 01:35:00
9:55 PM,69.8,51.8,53,29.87,10.0,NNW,4.6,-,N/A,,Unknown,330,2011-10-28 01:55:00
10:15 PM,69.8,51.8,53,29.88,10.0,NW,5.8,-,N/A,,Unknown,310,2011-10-28 02:15:00
10:35 PM,69.8,51.8,53,29.89,10.0,NNW,6.9,-,N/A,,Unknown,330,2011-10-28 02:35:00
10:55 PM,66.2,50.0,56,29.92,10.0,North,11.5,17.3,N/A,,Unknown,360,2011-10-28 02:55:00
11:15 PM,64.4,46.4,52,29.94,10.0,North,16.1,23.0,N/A,,Unknown,360,2011-10-28 03:15:00
11:35 PM,62.6,44.6,52,29.94,10.0,North,12.7,19.6,N/A,,Unknown,350,2011-10-28 03:35:00
11:55 PM,62.6,44.6,52,29.95,10.0,North,6.9,-,N/A,,Unknown,360,2011-10-28 03:55:00